Tracking 35331 objects as of 14-Sep-2026
HD Live streaming from Space Station
objects crossing your sky now

NOAA 17 DEB


NOAA 17 DEB is no longer on orbit


NORAD ID: 49490
Int'l Code: 2002-032DU
Launch date: June 24, 2002
Source: United States (US)
Launch site: AIR FORCE WESTERN TEST RANGE (AFWTR)
Decay date: 2022-09-27

Note: This is SATELLITE DEBRIS
Your satellite tracking list
Your tracking list is empty




NASA's NSSDC Master Catalog

Two Line Element Set (TLE):
1 49490U 02032DU  22269.10413232  .06708376  34568-5  36249-2 0  9994
2 49490  99.0269 331.4219 0029147 276.8976  82.8991 16.18654114 84842
Source of the keplerian elements: AFSPC